• In United Kingdom
  • List of Countries
  • For 7 days
  • Water Temperature
  • Satellite Maps
  • Weather Map
  • Weather Widgets
  • user-avatar
    Login

    Hourly Weather Kinshasa

    Today, 25 November, Saturday

    Time Temperature Precipitation Wind Pressure Humidity
    00:00 +21°C° 0 mm 0 mps 707 mmHg 56%
    01:00 +23°C° 0 mm 1 mps 708 mmHg 60%
    02:00 +23°C° 0 mm 1 mps 708 mmHg 61%
    03:00 +20°C° 0 mm 0 mps 707 mmHg 62%
    04:00 +20°C° 0 mm 0 mps 707 mmHg 63%
    05:00 +20°C° 0 mm 0 mps 708 mmHg 63%
    06:00 +21°C° 0 mm 0 mps 708 mmHg 64%
    07:00 +21°C° 0 mm 0 mps 708 mmHg 64%
    08:00 +24°C° 0 mm 0 mps 709 mmHg 55%
    09:00 +27°C° 0 mm 0 mps 709 mmHg 47%
    10:00 +31°C° 0 mm 0 mps 710 mmHg 38%
    11:00 +33°C° 0 mm 1 mps 709 mmHg 34%
    12:00 +34°C° 0 mm 1 mps 708 mmHg 31%
    13:00 +34°C° 0 mm 1 mps 708 mmHg 27%
    14:00 +34°C° 0 mm 1 mps 707 mmHg 29%
    15:00 +33°C° 0 mm 1 mps 707 mmHg 31%
    16:00 +33°C° 0 mm 1 mps 706 mmHg 33%
    17:00 +31°C° 0 mm 1 mps 706 mmHg 37%
    18:00 +28°C° 0 mm 1 mps 706 mmHg 42%
    19:00 +24°C° 0 mm 0 mps 706 mmHg 46%
    20:00 +23°C° 0 mm 0 mps 707 mmHg 47%
    21:00 +23°C° 0 mm 0 mps 707 mmHg 47%
    22:00 +22°C° 0 mm 0 mps 708 mmHg 48%
    23:00 +22°C° 0 mm 0 mps 707 mmHg 49%

    Tomorrow, 26 November, Sunday

    Time Temperature Precipitation Wind Pressure Humidity
    00:00 +23°C° 0 mm 1 mps 707 mmHg 51%
    01:00 +22°C° 0 mm 1 mps 707 mmHg 52%
    02:00 +22°C° 0 mm 1 mps 707 mmHg 53%
    03:00 +22°C° 0 mm 1 mps 707 mmHg 54%
    04:00 +21°C° 0 mm 1 mps 706 mmHg 55%
    05:00 +21°C° 0 mm 1 mps 707 mmHg 56%
    06:00 +22°C° 0 mm 1 mps 707 mmHg 57%
    07:00 +22°C° 0 mm 1 mps 708 mmHg 57%
    08:00 +25°C° 0 mm 1 mps 708 mmHg 49%
    09:00 +28°C° 0 mm 1 mps 708 mmHg 41%
    10:00 +32°C° 0 mm 1 mps 709 mmHg 33%
    11:00 +33°C° 0 mm 1 mps 708 mmHg 30%
    12:00 +35°C° 0 mm 2 mps 708 mmHg 27%
    13:00 +36°C° 0 mm 2 mps 707 mmHg 24%
    14:00 +35°C° 0 mm 1 mps 707 mmHg 26%
    15:00 +35°C° 0 mm 1 mps 706 mmHg 27%
    16:00 +34°C° 0 mm 1 mps 706 mmHg 28%
    17:00 +32°C° 0 mm 1 mps 706 mmHg 33%
    18:00 +29°C° 0 mm 1 mps 706 mmHg 37%
    19:00 +24°C° 0 mm 0 mps 706 mmHg 41%
    20:00 +23°C° 0 mm 0 mps 707 mmHg 42%
    21:00 +23°C° 0 mm 0 mps 707 mmHg 43%
    22:00 +24°C° 0 mm 1 mps 708 mmHg 44%
    23:00 +21°C° 0 mm 0 mps 708 mmHg 45%

    Day after tomorrow, 27 November, Monday

    Time Temperature Precipitation Wind Pressure Humidity
    00:00 +21°C° 0 mm 0 mps 707 mmHg 47%
    01:00 +20°C° 0 mm 0 mps 707 mmHg 48%
    02:00 +20°C° 0 mm 0 mps 707 mmHg 50%
    03:00 +21°C° 0 mm 1 mps 707 mmHg 51%
    04:00 +21°C° 0 mm 1 mps 706 mmHg 53%
    05:00 +21°C° 0 mm 1 mps 707 mmHg 57%
    06:00 +21°C° 0 mm 1 mps 707 mmHg 60%
    07:00 +22°C° 0 mm 1 mps 708 mmHg 64%
    08:00 +24°C° 0 mm 1 mps 708 mmHg 57%
    09:00 +27°C° 0 mm 1 mps 709 mmHg 50%
    10:00 +30°C° 0 mm 2 mps 709 mmHg 44%
    11:00 +32°C° 0 mm 1 mps 709 mmHg 38%
    12:00 +34°C° 0 mm 1 mps 708 mmHg 33%
    13:00 +35°C° 0 mm 1 mps 707 mmHg 28%
    14:00 +35°C° 0 mm 1 mps 707 mmHg 29%
    15:00 +34°C° 0 mm 1 mps 706 mmHg 29%
    16:00 +33°C° 0 mm 1 mps 706 mmHg 30%
    17:00 +31°C° 0 mm 1 mps 706 mmHg 35%
    18:00 +28°C° 0 mm 1 mps 706 mmHg 39%
    19:00 +26°C° 0 mm 1 mps 706 mmHg 44%
    20:00 +25°C° 0 mm 1 mps 707 mmHg 45%
    21:00 +25°C° 0 mm 1 mps 707 mmHg 46%
    22:00 +22°C° 0 mm 0 mps 708 mmHg 47%
    23:00 +21°C° 0 mm 0 mps 707 mmHg 50%

    28 November, Tuesday

    Time Temperature Precipitation Wind Pressure Humidity
    00:00 +21°C° 0 mm 0 mps 707 mmHg 53%
    01:00 +20°C° 0 mm 0 mps 707 mmHg 57%
    02:00 +20°C° 0 mm 0 mps 707 mmHg 60%
    03:00 +21°C° 0 mm 1 mps 706 mmHg 63%
    04:00 +21°C° 0 mm 1 mps 706 mmHg 65%
    05:00 +22°C° 0 mm 1 mps 707 mmHg 67%
    06:00 +22°C° 0 mm 1 mps 708 mmHg 69%
    07:00 +21°C° 0 mm 2 mps 708 mmHg 71%
    08:00 +25°C° 0 mm 2 mps 708 mmHg 64%
    09:00 +27°C° 0 mm 2 mps 709 mmHg 58%
    10:00 +30°C° 0 mm 2 mps 709 mmHg 51%
    11:00 +31°C° 0 mm 2 mps 708 mmHg 46%
    12:00 +34°C° 0 mm 2 mps 708 mmHg 40%
    13:00 +34°C° 0 mm 1 mps 707 mmHg 35%
    14:00 +34°C° 0 mm 1 mps 706 mmHg 35%
    15:00 +34°C° 0 mm 1 mps 706 mmHg 35%
    16:00 +33°C° 0 mm 1 mps 705 mmHg 35%
    17:00 +31°C° 0 mm 1 mps 706 mmHg 40%
    18:00 +29°C° 0 mm 1 mps 706 mmHg 45%
    19:00 +26°C° 0 mm 1 mps 706 mmHg 50%
    20:00 +26°C° 0 mm 1 mps 707 mmHg 52%
    21:00 +25°C° 0 mm 1 mps 707 mmHg 54%
    22:00 +24°C° 0 mm 1 mps 708 mmHg 56%
    23:00 +24°C° 0 mm 1 mps 707 mmHg 60%

    29 November, Wednesday

    Time Temperature Precipitation Wind Pressure Humidity
    00:00 +23°C° 0 mm 1 mps 707 mmHg 64%
    01:00 +23°C° 0 mm 1 mps 706 mmHg 68%
    02:00 +22°C° 0 mm 1 mps 706 mmHg 71%
    03:00 +22°C° 0 mm 1 mps 706 mmHg 74%
    04:00 +22°C° 0 mm 1 mps 706 mmHg 77%
    05:00 +22°C° 0 mm 1 mps 707 mmHg 76%
    06:00 +23°C° 0 mm 1 mps 708 mmHg 76%
    07:00 +23°C° 0 mm 1 mps 708 mmHg 75%
    08:00 +26°C° 0 mm 1 mps 709 mmHg 66%
    09:00 +28°C° 0 mm 1 mps 709 mmHg 57%
    10:00 +31°C° 0 mm 1 mps 709 mmHg 48%
    11:00 +32°C° 0 mm 1 mps 709 mmHg 42%
    12:00 +34°C° 0 mm 1 mps 708 mmHg 35%
    13:00 +36°C° 0 mm 1 mps 707 mmHg 29%
    14:00 +35°C° 0 mm 1 mps 707 mmHg 29%
    15:00 +35°C° 0 mm 1 mps 706 mmHg 28%
    16:00 +34°C° 0 mm 1 mps 705 mmHg 28%
    17:00 +32°C° 0 mm 1 mps 706 mmHg 32%
    18:00 +29°C° 0 mm 1 mps 706 mmHg 37%
    19:00 +26°C° 0 mm 1 mps 706 mmHg 42%
    20:00 +26°C° 0 mm 1 mps 706 mmHg 46%
    21:00 +25°C° 0 mm 1 mps 707 mmHg 51%
    22:00 +24°C° 0 mm 1 mps 707 mmHg 55%
    23:00 +24°C° 0 mm 1 mps 707 mmHg 60%

    30 November, Thursday

    Time Temperature Precipitation Wind Pressure Humidity
    00:00 +23°C° 0 mm 1 mps 707 mmHg 65%
    01:00 +23°C° 0 mm 1 mps 706 mmHg 71%
    02:00 +22°C° 0 mm 1 mps 707 mmHg 75%
    03:00 +22°C° 0 mm 1 mps 707 mmHg 79%
    04:00 +22°C° 0 mm 1 mps 707 mmHg 84%
    05:00 +22°C° 0.1 mm 1 mps 708 mmHg 84%
    06:00 +23°C° 0.1 mm 1 mps 708 mmHg 85%
    07:00 +23°C° 0.1 mm 1 mps 709 mmHg 85%
    08:00 +25°C° 0 mm 1 mps 709 mmHg 77%
    09:00 +27°C° 0 mm 1 mps 709 mmHg 69%
    10:00 +29°C° 0 mm 2 mps 709 mmHg 61%
    11:00 +31°C° 0 mm 2 mps 708 mmHg 53%
    12:00 +32°C° 0 mm 2 mps 708 mmHg 45%
    13:00 +34°C° 0 mm 1 mps 707 mmHg 36%
    14:00 +34°C° 0 mm 1 mps 707 mmHg 35%
    15:00 +34°C° 0 mm 1 mps 706 mmHg 34%
    16:00 +34°C° 0 mm 1 mps 706 mmHg 33%
    17:00 +32°C° 0 mm 1 mps 706 mmHg 39%
    18:00 +29°C° 0 mm 1 mps 706 mmHg 44%
    19:00 +27°C° 0 mm 1 mps 706 mmHg 50%
    20:00 +26°C° 0 mm 1 mps 707 mmHg 52%
    21:00 +25°C° 0 mm 1 mps 707 mmHg 55%
    22:00 +25°C° 0 mm 1 mps 707 mmHg 57%
    23:00 +24°C° 0 mm 1 mps 707 mmHg 61%
    Show more